Weather History for St. Louis, MO

Change the Weather History Date:

Saturday, November 26, 2011

  Actual Average Record
Temperature  
Mean Temperature 53 °F 42 °F  
Max Temperature 64 °F 50 °F 76 °F (1965)
Min Temperature 42 °F 34 °F 7 °F (1977)
Degree Days  
Heating Degree Days 12 23  
Month to date heating degree days 311 451  
Since 1 July heating degree days 543 727  
Cooling Degree Days 0 0  
Month to date cooling degree days 7 0  
Year to date cooling degree days 2014 1642  
Growing Degree Days 3 (Base 50)    
Moisture  
Dew Point 48 °F    
Average Humidity 79    
Maximum Humidity 92    
Minimum Humidity 66    
Precipitation  
Precipitation 0.45 in 0.13 in 2.32 in (1887)
Month to date precipitation 4.45 3.39  
Year to date precipitation 43.82 37.60  
Snow  
Snow 0.00 in 0.00 in 7.60 in (1975)
Month to date snowfall 0.0 0.5  
Since 1 July snowfall 0.0 0.5  
Since 1 September snowfall 0.0 0.5  
Snow Depth 0.00 in    
Sea Level Pressure  
Sea Level Pressure 29.88 in    
Wind  
Wind Speed 13 mph (SW)    
Max Wind Speed 28 mph    
Max Gust Speed 36 mph    
Visibility 7 miles    
Events Rain    
T = Trace of Precipitation, MM = Missing Value Source: NWS Daily Summary

Daily Weather History Graph

Daily Weather History Graph

Search for Another Location

Airport:

Trip Planner

Search our weather history database for the weather conditions in past years. The results will help you decide how hot, cold, wet, or windy it might be!

Date:

Astronomy

Nov. 26, 2011 Rise Set
Actual Time 6:55 AM CST 4:41 PM CST
Civil Twilight 6:26 AM CST 5:10 PM CST
Nautical Twilight 5:53 AM CST 5:43 PM CST
Astronomical Twilight 5:21 AM CST 6:15 PM CST
Moon 8:25 AM CST (11/26) 6:13 PM CST (11/26)
Length of Visible Light 10h 44m
Length of Day
9h 46m
Waxing Crescent, 3% of the Moon is Illuminated
Nov 26
Waxing Crescent
Dec 2
First Quarter
Dec 10
Full
Dec 17
Last Quarter
Dec 24
New

Hourly Weather History & Observations

Time (CST) Temp. Windchill Dew Point Humidity Pressure Visibility Wind Dir Wind Speed Gust Speed Precip Events Conditions
12:51 AM 57.0 °F - 46.0 °F 67% 29.95 in 10.0 mi South 12.7 mph 23.0 mph N/A   Overcast
1:51 AM 57.9 °F - 46.9 °F 67% 29.93 in 10.0 mi South 18.4 mph 24.2 mph N/A   Overcast
2:51 AM 57.0 °F - 48.0 °F 72% 29.92 in 10.0 mi SSE 12.7 mph - N/A   Overcast
3:51 AM 57.0 °F - 48.9 °F 74% 29.90 in 10.0 mi South 8.1 mph - N/A   Overcast
4:51 AM 57.0 °F - 48.9 °F 74% 29.89 in 10.0 mi SSE 10.4 mph - N/A   Overcast
5:51 AM 57.2 °F - 48.2 °F 72% 29.90 in 10.0 mi South 12.7 mph - N/A   Overcast
6:51 AM 57.0 °F - 50.0 °F 77% 29.89 in 10.0 mi South 12.7 mph - N/A   Overcast
7:51 AM 59.0 °F - 52.0 °F 78% 29.88 in 10.0 mi South 12.7 mph - N/A   Overcast
8:51 AM 61.0 °F - 53.1 °F 75% 29.86 in 10.0 mi South 15.0 mph 24.2 mph N/A   Overcast
9:24 AM 60.8 °F - 53.6 °F 77% 29.88 in 10.0 mi South 16.1 mph 24.2 mph N/A   Overcast
9:51 AM 61.0 °F - 54.0 °F 78% 29.88 in 10.0 mi South 16.1 mph - N/A   Overcast
10:51 AM 62.1 °F - 54.0 °F 75% 29.86 in 10.0 mi South 15.0 mph - N/A   Overcast
11:51 AM 64.0 °F - 54.0 °F 70% 29.84 in 10.0 mi South 12.7 mph 19.6 mph N/A   Overcast
12:51 PM 64.0 °F - 54.0 °F 70% 29.82 in 10.0 mi South 15.0 mph 24.2 mph N/A   Overcast
1:01 PM 64.4 °F - 53.6 °F 68% 29.82 in 10.0 mi South 10.4 mph 23.0 mph 0.00 in Rain Light Rain
1:19 PM 62.6 °F - 55.4 °F 77% 29.82 in 7.0 mi South 13.8 mph 21.9 mph 0.00 in Rain Light Rain
1:45 PM 62.6 °F - 55.4 °F 77% 29.81 in 7.0 mi South 11.5 mph 19.6 mph 0.01 in Rain Light Rain
1:51 PM 62.1 °F - 55.9 °F 80% 29.80 in 6.0 mi South 11.5 mph - 0.02 in Rain Light Rain
2:51 PM 62.1 °F - 57.0 °F 84% 29.78 in 9.0 mi SSE 11.5 mph - 0.01 in Rain Light Rain
3:46 PM 60.8 °F - 57.2 °F 88% 29.81 in 9.0 mi South 10.4 mph - 0.00 in Rain Light Rain
3:51 PM 61.0 °F - 57.0 °F 87% 29.80 in 8.0 mi South 12.7 mph 18.4 mph 0.00 in Rain Light Rain
4:51 PM 60.1 °F - 57.0 °F 90% 29.80 in 5.0 mi South 8.1 mph - 0.03 in Rain Light Rain
5:34 PM 60.8 °F - 57.2 °F 88% 29.80 in 5.0 mi SSW 11.5 mph - 0.02 in Rain Light Rain
5:51 PM 60.1 °F - 57.0 °F 90% 29.80 in 5.0 mi South 5.8 mph - 0.03 in Rain Light Rain
6:00 PM 53.6 °F - 51.8 °F 94% 29.84 in 5.0 mi NW 23.0 mph 28.8 mph 0.00 in Rain Light Rain
6:05 PM 48.2 °F - 46.4 °F 93% 29.84 in 3.0 mi NW 19.6 mph 31.1 mph N/A Rain Heavy Rain
6:13 PM 48.2 °F - 44.6 °F 87% 29.85 in 5.0 mi NW 24.2 mph 32.2 mph 0.05 in Rain Rain
6:20 PM 46.4 °F 38.3 °F 44.6 °F 93% 29.84 in 4.0 mi NW 23.0 mph 31.1 mph 0.06 in Rain Light Rain
6:44 PM 46.4 °F 39.2 °F 44.6 °F 93% 29.88 in 4.0 mi NW 18.4 mph 26.5 mph 0.09 in Rain Rain
6:51 PM 46.0 °F 40.2 °F 43.0 °F 89% 29.89 in 4.0 mi NW 12.7 mph 26.5 mph 0.11 in Rain Light Rain
7:24 PM 44.6 °F 38.1 °F 42.8 °F 93% 29.88 in 4.0 mi NW 13.8 mph 23.0 mph N/A Rain Light Rain
7:42 PM 44.6 °F 35.9 °F 42.8 °F 93% 29.90 in 5.0 mi NW 23.0 mph 28.8 mph 0.05 in Rain Light Rain
7:51 PM 45.0 °F 38.5 °F 42.1 °F 90% 29.90 in 6.0 mi NW 13.8 mph 27.6 mph 0.06 in Rain Light Rain
8:19 PM 44.6 °F 38.1 °F 42.8 °F 93% 29.91 in 3.0 mi NW 13.8 mph 23.0 mph 0.04 in Rain Light Rain
8:41 PM 44.6 °F 38.1 °F 42.8 °F 93% 29.92 in 3.0 mi NW 13.8 mph 21.9 mph 0.07 in Rain Light Rain
8:51 PM 44.1 °F 37.7 °F 41.0 °F 89% 29.94 in 5.0 mi NW 12.7 mph - 0.07 in Rain Light Rain
9:09 PM 44.6 °F 37.4 °F 41.0 °F 87% 29.94 in 4.0 mi NW 16.1 mph 24.2 mph 0.01 in Rain Light Rain
9:25 PM 42.8 °F 35.8 °F 39.2 °F 87% 29.95 in 4.0 mi NW 13.8 mph 25.3 mph 0.02 in Rain Light Rain
9:51 PM 43.0 °F 36.0 °F 39.9 °F 89% 29.95 in 4.0 mi NW 13.8 mph 21.9 mph 0.03 in Rain Light Rain
10:40 PM 42.8 °F 35.1 °F 39.2 °F 87% 29.97 in 6.0 mi NW 16.1 mph 23.0 mph 0.05 in Rain Light Rain
10:51 PM 42.1 °F 34.5 °F 39.0 °F 89% 29.96 in 6.0 mi NW 15.0 mph 23.0 mph 0.05 in Rain Light Rain
11:16 PM 42.8 °F 35.8 °F 39.2 °F 87% 29.97 in 4.0 mi NW 13.8 mph - 0.01 in Rain Light Rain
11:42 PM 42.8 °F 35.8 °F 39.2 °F 87% 29.97 in 6.0 mi NW 13.8 mph - 0.03 in Rain Light Rain
11:51 PM 42.1 °F 35.2 °F 39.0 °F 89% 29.97 in 6.0 mi NW 12.7 mph - 0.04 in Rain Light Rain